Weather History for KEMV - March, 2014

Change the Weather History Date:

Tuesday, March 4, 2014

  Actual Average Record
Temperature  
Mean Temperature 21 °F -  
Max Temperature 32 °F 58 °F 84 °F (2004)
Min Temperature 10 °F 35 °F 10 °F (2014)
Degree Days  
Heating Degree Days 44    
Moisture  
Dew Point 13 °F    
Average Humidity 63    
Maximum Humidity 79    
Minimum Humidity 51    
Precipitation  
Precipitation 0.00 in - - ()
Sea Level Pressure  
Sea Level Pressure 30.32 in    
Wind  
Wind Speed 6 mph (NNW)    
Max Wind Speed 12 mph    
Max Gust Speed -    
Visibility 10 miles    
Events      
Averages and records for this station are not official NWS values.
T = Trace of Precipitation, MM = Missing Value Source: NWS Daily Summary

Daily Weather History Graph

Daily Weather History Graph

Search for Another Location

Airport or City:

Trip Planner

Search our weather history database for the weather conditions in past years. The results will help you decide how hot, cold, wet, or windy it might be!

Date:

Astronomy

Mar. 04, 2014 Rise Set
Actual Time 6:36 AM EST 6:07 PM EST
Civil Twilight 6:10 AM EST 6:33 PM EST
Nautical Twilight 5:40 AM EST 7:03 PM EST
Astronomical Twilight 5:10 AM EST 7:33 PM EST
Moon 8:27 AM EST (3/4) 10:05 PM EST (3/4)
Length of Visible Light 12h 22m
Length of Day
11h 30m
Waxing Crescent, 14% of the Moon is Illuminated
Mar 4
Waxing Crescent
Mar 8
First Quarter
Mar 16
Full
Mar 23
Last Quarter
Mar 30
New

Hourly Weather History & Observations

Time (EST) Temp. Windchill Dew Point Humidity Pressure Visibility Wind Dir Wind Speed Gust Speed Precip Events Conditions
12:15 AM 14.0 °F 5.1 °F 8.6 °F 79% 30.33 in - North 5.8 mph - N/A   Clear
12:35 AM 17.6 °F 10.7 °F 8.6 °F 68% 30.32 in 10.0 mi North 4.6 mph - N/A   Clear
12:55 AM 15.8 °F 6.1 °F 8.6 °F 73% 30.33 in 10.0 mi North 6.9 mph - N/A   Clear
1:15 AM 15.8 °F 6.1 °F 8.6 °F 73% 30.34 in 10.0 mi North 6.9 mph - N/A   Clear
1:35 AM 14.0 °F 6.5 °F 6.8 °F 73% 30.33 in 10.0 mi North 4.6 mph - N/A   Clear
1:55 AM 14.0 °F 5.1 °F 5.0 °F 67% 30.33 in 10.0 mi North 5.8 mph - N/A   Clear
2:15 AM 14.0 °F 6.5 °F 6.8 °F 73% 30.33 in 10.0 mi North 4.6 mph - N/A   Clear
2:35 AM 12.2 °F 2.9 °F 5.0 °F 73% 30.34 in 10.0 mi North 5.8 mph - N/A   Clear
2:55 AM 12.2 °F 1.7 °F 5.0 °F 73% 30.33 in 10.0 mi North 6.9 mph - N/A   Clear
3:15 AM 12.2 °F 2.9 °F 5.0 °F 73% 30.32 in 10.0 mi North 5.8 mph - N/A   Clear
3:35 AM 12.2 °F 2.9 °F 5.0 °F 73% 30.33 in 10.0 mi North 5.8 mph - N/A   Clear
3:55 AM 10.4 °F 0.8 °F 5.0 °F 79% 30.32 in 10.0 mi North 5.8 mph - N/A   Clear
4:15 AM 10.4 °F 0.8 °F 5.0 °F 79% 30.32 in - North 5.8 mph - N/A   Clear
4:35 AM 10.4 °F 0.8 °F 3.2 °F 73% 30.32 in 10.0 mi North 5.8 mph - N/A   Clear
4:55 AM 10.4 °F 2.2 °F 5.0 °F 79% 30.33 in 10.0 mi North 4.6 mph - N/A   Clear
5:15 AM 12.2 °F 4.3 °F 5.0 °F 73% 30.34 in 10.0 mi North 4.6 mph - N/A   Clear
5:35 AM 10.4 °F 4.0 °F 5.0 °F 79% 30.35 in 10.0 mi North 3.5 mph - N/A   Clear
5:55 AM 10.4 °F 2.2 °F 5.0 °F 79% 30.36 in 10.0 mi North 4.6 mph - N/A   Clear
6:15 AM 10.4 °F 2.2 °F 5.0 °F 79% 30.36 in 10.0 mi North 4.6 mph - N/A   Clear
6:30 AM 10.4 °F 0.8 °F 5.0 °F 79% 30.36 in 10.0 mi North 5.8 mph - N/A   Clear
6:42 AM 10.4 °F 2.2 °F 3.2 °F 73% 30.37 in 10.0 mi North 4.6 mph - N/A   Clear
6:55 AM 10.4 °F 0.8 °F 5.0 °F 79% 30.37 in 10.0 mi North 5.8 mph - N/A   Clear
7:15 AM 12.2 °F 1.7 °F 5.0 °F 73% 30.36 in 10.0 mi North 6.9 mph - N/A   Clear
7:35 AM 14.0 °F 5.1 °F 5.0 °F 67% 30.38 in 10.0 mi North 5.8 mph - N/A   Clear
7:55 AM 14.0 °F 3.9 °F 8.6 °F 79% 30.38 in 10.0 mi North 6.9 mph - N/A   Clear
8:15 AM 17.6 °F 9.3 °F 8.6 °F 68% 30.38 in 10.0 mi North 5.8 mph - N/A   Clear
8:35 AM 19.4 °F 9.5 °F 8.6 °F 63% 30.38 in 10.0 mi North 8.1 mph - N/A   Clear
8:55 AM 19.4 °F 9.5 °F 10.4 °F 68% 30.39 in 10.0 mi North 8.1 mph - N/A   Clear
9:15 AM 21.2 °F 10.9 °F 10.4 °F 63% 30.39 in 10.0 mi North 9.2 mph - N/A   Clear
9:35 AM 21.2 °F 13.6 °F 12.2 °F 68% 30.39 in 10.0 mi North 5.8 mph - N/A   Clear
9:55 AM 23.0 °F 13.9 °F 12.2 °F 63% 30.39 in 10.0 mi North 8.1 mph - N/A   Clear
10:10 AM 23.0 °F 11.7 °F 12.2 °F 63% 30.38 in 10.0 mi North 11.5 mph - N/A   Clear
10:35 AM 24.8 °F 16.9 °F 12.2 °F 59% 30.36 in 10.0 mi North 6.9 mph - N/A   Clear
10:55 AM 26.6 °F 16.8 °F 14.0 °F 59% 30.36 in 10.0 mi North 10.4 mph - N/A   Clear
11:15 AM 26.6 °F 16.8 °F 14.0 °F 59% 30.35 in 10.0 mi NW 10.4 mph - N/A   Clear
11:35 AM 26.6 °F 17.5 °F 14.0 °F 59% 30.35 in 10.0 mi NW 9.2 mph - N/A   Clear
11:55 AM 28.4 °F 21.2 °F 14.0 °F 55% 30.34 in 10.0 mi North 6.9 mph - N/A   Clear
12:15 PM 30.2 °F 26.7 °F 14.0 °F 51% 30.35 in 10.0 mi NNW 3.5 mph - N/A   Clear
12:35 PM 30.2 °F 22.6 °F 17.6 °F 60% 30.33 in 10.0 mi North 8.1 mph - N/A   Clear
12:55 PM 30.2 °F 21.9 °F 17.6 °F 60% 30.32 in 10.0 mi NNW 9.2 mph - N/A   Clear
1:15 PM 30.2 °F 21.9 °F 17.6 °F 60% 30.31 in 10.0 mi North 9.2 mph - N/A   Mostly Cloudy
1:35 PM 30.2 °F 21.9 °F 17.6 °F 60% 30.31 in - NW 9.2 mph - N/A   Overcast
1:50 PM 30.2 °F 21.3 °F 17.6 °F 60% 30.30 in 10.0 mi NW 10.4 mph - N/A   Overcast
2:15 PM 32.0 °F 24.2 °F 17.6 °F 55% 30.29 in 10.0 mi NNW 9.2 mph - N/A   Overcast
2:35 PM 32.0 °F 25.6 °F 17.6 °F 55% 30.28 in 10.0 mi NW 6.9 mph - N/A   Overcast
2:50 PM 32.0 °F 24.8 °F 17.6 °F 55% 30.28 in 10.0 mi NNW 8.1 mph - N/A   Overcast
3:15 PM 32.0 °F 26.4 °F 17.6 °F 55% 30.28 in 10.0 mi NNW 5.8 mph - N/A   Overcast
3:35 PM 32.0 °F 25.6 °F 17.6 °F 55% 30.28 in 10.0 mi NW 6.9 mph - N/A   Overcast
3:55 PM 32.0 °F 26.4 °F 17.6 °F 55% 30.28 in 10.0 mi WNW 5.8 mph - N/A   Overcast
4:15 PM 32.0 °F 25.6 °F 17.6 °F 55% 30.27 in 10.0 mi NW 6.9 mph - N/A   Overcast
4:35 PM 32.0 °F 28.7 °F 17.6 °F 55% 30.27 in 10.0 mi NNW 3.5 mph - N/A   Overcast
4:55 PM 32.0 °F 27.5 °F 15.8 °F 51% 30.27 in 10.0 mi NW 4.6 mph - N/A   Overcast
5:15 PM 32.0 °F 27.5 °F 15.8 °F 51% 30.27 in 10.0 mi NNW 4.6 mph - N/A   Overcast
5:35 PM 32.0 °F 27.5 °F 15.8 °F 51% 30.27 in 10.0 mi NNW 4.6 mph - N/A   Overcast
5:55 PM 32.0 °F 27.5 °F 17.6 °F 55% 30.27 in 10.0 mi NNW 4.6 mph - N/A   Overcast
6:15 PM 32.0 °F 27.5 °F 17.6 °F 55% 30.27 in 10.0 mi NNW 4.6 mph - N/A   Overcast
6:30 PM 32.0 °F 27.5 °F 17.6 °F 55% 30.27 in 10.0 mi NNW 4.6 mph - N/A   Overcast
6:55 PM 32.0 °F 25.6 °F 17.6 °F 55% 30.28 in 10.0 mi NW 6.9 mph - N/A   Overcast
7:15 PM 32.0 °F 26.4 °F 17.6 °F 55% 30.28 in 10.0 mi NW 5.8 mph - N/A   Overcast
7:35 PM 32.0 °F 27.5 °F 19.4 °F 60% 30.28 in 10.0 mi NW 4.6 mph - N/A   Overcast
7:55 PM 32.0 °F 27.5 °F 17.6 °F 55% 30.29 in 10.0 mi NW 4.6 mph - N/A   Overcast
8:15 PM 32.0 °F 28.7 °F 17.6 °F 55% 30.28 in 10.0 mi NW 3.5 mph - N/A   Overcast
8:35 PM 32.0 °F 28.7 °F 17.6 °F 55% 30.28 in 10.0 mi WNW 3.5 mph - N/A   Overcast
8:55 PM 32.0 °F 28.7 °F 17.6 °F 55% 30.27 in 10.0 mi WNW 3.5 mph - N/A   Overcast
9:15 PM 32.0 °F 28.7 °F 17.6 °F 55% 30.28 in 10.0 mi NW 3.5 mph - N/A   Overcast
9:35 PM 32.0 °F 27.5 °F 17.6 °F 55% 30.26 in 10.0 mi NW 4.6 mph - N/A   Overcast
9:55 PM 32.0 °F 28.7 °F 19.4 °F 60% 30.26 in 10.0 mi NW 3.5 mph - N/A   Overcast
10:10 PM 32.0 °F 28.7 °F 19.4 °F 60% 30.26 in 10.0 mi NW 3.5 mph - N/A   Overcast
10:35 PM 32.0 °F - 17.6 °F 55% 30.25 in 10.0 mi Calm Calm - N/A   Overcast
10:55 PM 32.0 °F 27.5 °F 17.6 °F 55% 30.25 in 10.0 mi NNW 4.6 mph - N/A   Overcast
11:15 PM 32.0 °F 28.7 °F 17.6 °F 55% 30.25 in 10.0 mi NNW 3.5 mph - N/A   Overcast
11:35 PM 32.0 °F 26.4 °F 19.4 °F 60% 30.24 in 10.0 mi NW 5.8 mph - N/A   Overcast
11:55 PM 32.0 °F 27.5 °F 19.4 °F 60% 30.23 in 10.0 mi NNW 4.6 mph - N/A   Overcast